Sigfox identifier Datetime Temperature Humidity SNR
002EF541 2019-04-23 14:51:19 21.6 28 13.5
002EF541 2019-04-23 14:18:06 21.6 28 13.2
002EF541 2019-04-23 13:44:57 21.6 28 13.4
002EF541 2019-04-23 13:11:49 21.6 28 11.9
002EF541 2019-04-23 12:38:34 21.6 28 11.8
002EF541 2019-04-23 12:05:22 21.5 28 17.4
002EF541 2019-04-23 11:32:10 21.4 28 17.3
002EF541 2019-04-23 10:59:03 21.4 28 17.2
002EF541 2019-04-23 10:25:48 21.4 28 17.3
002EF541 2019-04-23 09:52:39 21.4 27 17.3
002EF541 2019-04-23 09:19:27 21.2 27 17.3
002EF541 2019-04-23 08:46:14 21.2 27 17.3
002EF541 2019-04-23 08:13:04 21.2 27 17.3
002EF541 2019-04-23 07:39:53 21.2 27 17.2
002EF541 2019-04-23 07:06:43 21.2 27 17.2
002EF541 2019-04-23 06:33:32 21.2 27 17.2
002EF541 2019-04-23 06:00:22 21.2 27 17.2
002EF541 2019-04-23 05:27:10 21.2 27 17.2
002EF541 2019-04-23 04:53:59 21.2 27 17.2
002EF541 2019-04-23 04:20:49 21.2 27 17.2
002EF541 2019-04-23 03:47:40 21.2 27 17.1
002EF541 2019-04-23 03:14:28 21.2 27 17.1
002EF541 2019-04-23 02:41:17 21.2 27 17.1
002EF541 2019-04-23 02:08:09 21.2 27 17.1
002EF541 2019-04-23 01:34:55 21.2 27 17.1
002EF541 2019-04-23 01:01:44 21.2 27 17.1
002EF541 2019-04-22 23:55:22 21.2 27 17
002EF541 2019-04-22 23:22:12 21.2 27 17
002EF541 2019-04-22 22:48:58 21.2 27 17
002EF541 2019-04-22 22:15:49 21.2 27 10.7
002EF541 2019-04-22 21:42:36 21.2 27 10.8
002EF541 2019-04-22 21:09:24 21.2 27 10.9
002EF541 2019-04-22 20:36:12 21.2 27 10.7
002EF541 2019-04-22 20:03:02 21.2 27 10.6
002EF541 2019-04-22 19:29:53 21.2 27 10.5
002EF541 2019-04-22 18:56:41 21.2 27 10.5
002EF541 2019-04-22 18:23:28 21.2 27 10.6
002EF541 2019-04-22 17:50:17 21.2 27 10.4
002EF541 2019-04-22 17:17:05 21.2 27 10.3
002EF541 2019-04-22 16:43:55 21.2 27 10.2
002EF541 2019-04-22 16:10:41 21.2 27 10.1
002EF541 2019-04-22 15:37:28 21.2 27 10.3
002EF541 2019-04-22 15:04:16 21.2 27 10.3
002EF541 2019-04-22 14:31:04 21.2 27 10.4
002EF541 2019-04-22 13:57:52 21.2 27 10.5
002EF541 2019-04-22 13:24:43 21.2 26 10.5
002EF541 2019-04-22 12:51:29 21.2 26 10.5
002EF541 2019-04-22 12:18:17 21.2 26 10.4
002EF541 2019-04-22 11:45:07 21.2 26 10.6
002EF541 2019-04-22 11:11:53 21.2 26 10.7
002EF541 2019-04-22 10:38:42 21.3 26 10.7
002EF541 2019-04-22 10:05:32 21.3 26 10.7
002EF541 2019-04-22 09:32:21 21.3 26 10.7
002EF541 2019-04-22 08:59:09 21.2 26 17.1
002EF541 2019-04-22 08:25:55 21.3 26 17.1
002EF541 2019-04-22 07:52:43 21.3 26 17
002EF541 2019-04-22 07:19:34 21.2 26 17.1
002EF541 2019-04-22 06:46:22 21.3 26 17.1
002EF541 2019-04-22 06:13:12 21.4 26 17.1
002EF541 2019-04-22 05:40:05 21.3 26 17.2
002EF541 2019-04-22 04:33:42 21.4 26 17.2
002EF541 2019-04-22 04:00:27 21.4 26 17.3
002EF541 2019-04-22 03:27:15 21.4 26 17.4
002EF541 2019-04-22 02:54:05 21.4 26 17.4
002EF541 2019-04-22 02:20:57 21.4 26 17.5
002EF541 2019-04-22 01:47:42 21.4 26 17.8
002EF541 2019-04-22 01:14:33 21.4 26 17.8
002EF541 2019-04-22 00:41:20 21.4 26 17.8
002EF541 2019-04-22 00:08:09 21.4 26 17.8
002EF541 2019-04-21 23:34:58 21.4 26 17.7
002EF541 2019-04-21 23:01:48 21.4 26 17.8
002EF541 2019-04-21 22:28:38 21.4 26 17.8
002EF541 2019-04-21 21:55:27 21.4 26 17.8
002EF541 2019-04-21 21:22:16 21.5 26 17.8
002EF541 2019-04-21 20:49:04 21.4 26 17.8
002EF541 2019-04-21 20:15:53 21.4 26 17.8
002EF541 2019-04-21 19:42:44 21.4 26 17.8
002EF541 2019-04-21 19:09:34 21.4 26 17.8
002EF541 2019-04-21 18:36:21 21.4 26 13.4
002EF541 2019-04-21 18:03:11 21.4 26 13.3
002EF541 2019-04-21 17:30:00 21.4 26 13.4
002EF541 2019-04-21 16:56:51 21.4 26 13.3
002EF541 2019-04-21 16:23:39 21.4 26 13.4
002EF541 2019-04-21 15:50:30 21.2 26 13.3
002EF541 2019-04-21 15:17:18 21.2 26 13.2
002EF541 2019-04-21 14:44:05 21.2 26 13.1
002EF541 2019-04-21 14:10:58 21.2 26 13
002EF541 2019-04-21 13:37:45 21.2 26 12.8
002EF541 2019-04-21 13:04:34 21.2 26 12.8
002EF541 2019-04-21 12:31:23 21.2 26 12.7
002EF541 2019-04-21 11:58:16 21.2 26 11.6
002EF541 2019-04-21 10:51:54 21.2 25 11.6
002EF541 2019-04-21 10:18:45 21.2 25 11.8
002EF541 2019-04-21 09:45:32 21.2 25 11.9
002EF541 2019-04-21 09:12:23 21.2 25 11.8
002EF541 2019-04-21 08:39:13 21.2 25 11.8
002EF541 2019-04-21 08:06:01 21.2 25 11.7
002EF541 2019-04-21 07:32:54 21.2 25 11.6
002EF541 2019-04-21 06:59:43 21.2 25 11.8
002EF541 2019-04-21 06:26:31 21.2 25 11.9
002EF541 2019-04-21 05:53:20 21.2 25 12.2
002EF541 2019-04-21 05:20:06 21.2 25 12
002EF541 2019-04-21 04:46:54 21.3 25 11.8
002EF541 2019-04-21 04:13:43 21.3 25 11.7
002EF541 2019-04-21 03:40:33 21.2 25 11.6
002EF541 2019-04-21 03:07:21 21.4 25 11.5
002EF541 2019-04-21 02:34:10 21.3 25 11.4
002EF541 2019-04-21 02:00:58 21.4 25 11.4
002EF541 2019-04-21 01:27:47 21.4 25 11.3
002EF541 2019-04-21 00:54:35 21.4 25 11.3
002EF541 2019-04-21 00:21:27 21.4 25 11.3
002EF541 2019-04-20 23:48:14 21.3 25 11.1
002EF541 2019-04-20 23:15:02 21.4 25 11.1
002EF541 2019-04-20 22:41:52 21.4 25 11.1
002EF541 2019-04-20 22:08:39 21.4 25 11.2
002EF541 2019-04-20 21:35:28 21.4 25 11.2
002EF541 2019-04-20 21:02:16 21.4 25 11
002EF541 2019-04-20 20:29:04 21.4 24 10.8
002EF541 2019-04-20 19:55:53 21.4 24 10.6
002EF541 2019-04-20 18:49:30 21.4 24 10.5
002EF541 2019-04-20 18:16:17 21.4 24 10.5
002EF541 2019-04-20 17:09:55 21.4 24 10.6
002EF541 2019-04-20 16:36:46 21.4 24 10.7
002EF541 2019-04-20 16:03:35 21.3 24 10.3
002EF541 2019-04-20 15:30:26 21.3 24 10.1
002EF541 2019-04-20 14:57:10 21.3 24 9.7
002EF541 2019-04-20 14:24:00 21.2 24 9.6
002EF541 2019-04-20 13:50:49 21.2 24 9.6
002EF541 2019-04-20 13:17:41 21.2 24 9.6
002EF541 2019-04-20 12:44:29 21.2 24 9.6
002EF541 2019-04-20 12:11:17 21.2 24 9.6
002EF541 2019-04-20 11:04:58 21.2 24 9.7
002EF541 2019-04-20 10:31:47 21.2 24 9.8
002EF541 2019-04-20 09:58:36 21.2 24 9.9
002EF541 2019-04-20 09:25:25 21.2 24 9.9
002EF541 2019-04-20 08:52:12 21.2 24 9.9
002EF541 2019-04-20 08:19:04 21.2 24 10
002EF541 2019-04-20 07:45:51 21.2 24 10
002EF541 2019-04-20 07:12:40 21.2 24 9.9
002EF541 2019-04-20 06:39:30 21.2 24 9.9
002EF541 2019-04-20 06:06:20 21.2 24 10.6
002EF541 2019-04-20 05:33:11 21.2 23 10.6
002EF541 2019-04-20 04:59:59 21.1 24 10.7
002EF541 2019-04-20 03:53:40 21.2 24 10.9
002EF541 2019-04-20 03:20:27 21.1 23 10.9
002EF541 2019-04-20 02:47:14 21.1 23 11.1
002EF541 2019-04-20 02:14:03 21 23 11.3
002EF541 2019-04-20 01:40:52 21.1 23 10.9
002EF541 2019-04-20 01:07:42 21 23 11
002EF541 2019-04-20 00:34:31 21 23 11.2
002EF541 2019-04-20 00:01:21 21 23 11.2
002EF541 2019-04-19 23:28:12 21 23 11.2
002EF541 2019-04-19 22:55:00 21 24 11.5
002EF541 2019-04-19 22:21:49 21 24 11.6
002EF541 2019-04-19 21:48:39 21 24 11.6
002EF541 2019-04-19 21:15:29 21 24 11.6
002EF541 2019-04-19 20:42:19 21 24 11.7
002EF541 2019-04-19 20:09:08 21 24 11.8
002EF541 2019-04-19 19:35:59 21 24 11.7
002EF541 2019-04-19 19:02:50 21 24 11.8
002EF541 2019-04-19 18:29:40 21 24 12
002EF541 2019-04-19 17:56:30 21 24 12.1
002EF541 2019-04-19 17:23:20 21 24 12.1
002EF541 2019-04-19 16:50:10 21 24 12.1
002EF541 2019-04-19 16:17:01 21 24 12
002EF541 2019-04-19 15:43:50 21 24 11.5
002EF541 2019-04-19 15:10:42 21 24 11.6
002EF541 2019-04-19 14:37:33 21 24 11.6
002EF541 2019-04-19 14:04:19 21.1 24 11.5
002EF541 2019-04-19 13:31:13 21.1 24 11.6
002EF541 2019-04-19 12:57:58 21 25 11.7
002EF541 2019-04-19 12:24:47 21.1 25 11.8
002EF541 2019-04-19 11:51:36 21.2 25 11.9
002EF541 2019-04-19 11:18:25 21.2 25 11.8
002EF541 2019-04-19 10:45:15 21.2 25 11.8
002EF541 2019-04-19 10:12:04 21.2 25 12
002EF541 2019-04-19 09:38:53 21.2 25 12
002EF541 2019-04-19 09:05:43 21.2 25 11.8
002EF541 2019-04-19 08:32:33 21.2 25 11.7
002EF541 2019-04-19 07:59:24 21.2 25 11.7
002EF541 2019-04-19 07:26:14 21.4 25 11.6
002EF541 2019-04-19 06:53:03 21.4 26 11.9
002EF541 2019-04-19 06:19:54 21.4 26 11.9
002EF541 2019-04-19 05:46:43 21.4 26 11.8
002EF541 2019-04-19 05:13:33 21.4 26 11.8
002EF541 2019-04-19 04:40:21 21.4 26 11.5
002EF541 2019-04-19 04:07:11 21.4 26 17.3
002EF541 2019-04-19 03:33:58 21.4 26 19.7
002EF541 2019-04-19 03:00:48 21.4 26 21.2
002EF541 2019-04-19 02:27:39 21.4 26 21.4
002EF541 2019-04-19 01:54:33 21.4 26 21.9
002EF541 2019-04-19 01:21:19 21.4 26 22.5
002EF541 2019-04-19 00:48:09 21.4 26 22.6
002EF541 2019-04-19 00:15:00 21.4 26 22.7
002EF541 2019-04-18 23:41:47 21.4 26 22.9
002EF541 2019-04-18 23:08:37 21.4 26 23
002EF541 2019-04-18 22:35:29 21.4 26 23.2
002EF541 2019-04-18 22:02:16 21.4 26 23.6
002EF541 2019-04-18 21:29:06 21.4 26 23.8
002EF541 2019-04-18 20:55:55 21.4 26 24.1
002EF541 2019-04-18 20:22:44 21.4 26 24.3
002EF541 2019-04-18 19:49:33 21.4 26 24.4
002EF541 2019-04-18 19:16:22 21.4 26 24.6
002EF541 2019-04-18 18:43:12 21.5 26 24.7
002EF541 2019-04-18 18:10:02 21.5 26 25
002EF541 2019-04-18 17:36:51 21.6 26 25.1
002EF541 2019-04-18 17:03:38 21.6 26 25.2
002EF541 2019-04-18 16:30:31 21.6 26 25.4
002EF541 2019-04-18 15:57:15 21.6 26 25.5
002EF541 2019-04-18 15:24:05 21.6 26 25.8
002EF541 2019-04-18 14:50:54 21.8 26 26
002EF541 2019-04-18 13:44:34 21.9 26 25.5
002EF541 2019-04-18 13:11:22 22 26 25.2
002EF541 2019-04-18 12:38:11 22.2 25 25
002EF541 2019-04-18 12:05:01 22.7 20 25
002EF541 2019-04-18 11:31:49 22.5 21 25
002EF541 2019-04-18 10:58:37 22.5 21 24.9
002EF541 2019-04-18 10:25:25 22.5 22 24.9
002EF541 2019-04-18 09:52:13 22.3 22 25
002EF541 2019-04-18 09:19:02 22.4 21 25.2
002EF541 2019-04-18 08:45:50 22.3 21 25.2
002EF541 2019-04-18 08:12:40 22.3 21 25.2
002EF541 2019-04-18 07:39:29 22.3 21 25.2
002EF541 2019-04-18 07:06:18 22.3 21 25.3
002EF541 2019-04-18 06:33:07 22.3 21 25.2
002EF541 2019-04-18 05:59:56 22.3 22 25.2
002EF541 2019-04-18 05:26:45 22.3 22 25.1
002EF541 2019-04-18 04:53:33 22.3 22 25.1
002EF541 2019-04-18 04:20:22 22.5 22 25
002EF541 2019-04-18 03:47:11 22.5 22 24.9
002EF541 2019-04-18 03:14:00 22.5 22 24.9
002EF541 2019-04-18 02:40:51 22.5 22 24.7
002EF541 2019-04-18 02:07:40 22.5 22 24.5
002EF541 2019-04-18 01:34:30 22.5 22 24.5
002EF541 2019-04-18 01:01:19 22.5 22 24.4
002EF541 2019-04-18 00:28:09 22.5 22 24.2
002EF541 2019-04-17 23:54:58 22.7 23 24.3
002EF541 2019-04-17 23:21:47 22.7 23 24.2
002EF541 2019-04-17 22:48:36 22.7 23 24
002EF541 2019-04-17 22:15:24 22.7 22 24.1
002EF541 2019-04-17 21:42:14 22.7 22 24
002EF541 2019-04-17 21:09:02 22.9 22 24.4
002EF541 2019-04-17 20:35:51 22.9 22 24.4
002EF541 2019-04-17 20:02:40 22.9 22 24.4
002EF541 2019-04-17 19:29:29 22.9 22 24.3
002EF541 2019-04-17 18:56:17 22.9 22 24.9
002EF541 2019-04-17 18:23:07 23 21 24.8
002EF541 2019-04-17 17:49:55 23.1 21 24.8
002EF541 2019-04-17 17:16:44 23.1 21 24.6
002EF541 2019-04-17 16:43:34 23.1 21 24.6
002EF541 2019-04-17 16:10:22 23.1 22 24.7
002EF541 2019-04-17 15:37:10 23.1 22 24.8
002EF541 2019-04-17 15:03:59 23.1 23 24.8
002EF541 2019-04-17 14:30:46 23 23 24.8
002EF541 2019-04-17 13:57:34 22.9 23 24.9
002EF541 2019-04-17 13:24:23 22.9 23 24.9
002EF541 2019-04-17 12:51:12 22.7 23 25.2
002EF541 2019-04-17 12:18:02 22.7 23 25.3
002EF541 2019-04-17 11:44:52 22.5 22 25.4
002EF541 2019-04-17 11:11:41 22.5 22 25.4
002EF541 2019-04-17 10:38:30 22.5 21 25.4
002EF541 2019-04-17 10:05:18 22.4 21 25.5
002EF541 2019-04-17 09:32:06 22.5 21 25.7
002EF541 2019-04-17 08:58:55 22.4 21 25.7
002EF541 2019-04-17 08:25:44 22.2 21 25.7
002EF541 2019-04-17 07:52:33 22.2 20 25.8
002EF541 2019-04-17 07:19:22 22.2 19 25.8
002EF541 2019-04-17 06:46:11 22.2 19 25.8
002EF541 2019-04-17 06:12:59 22.2 19 25.8
002EF541 2019-04-17 05:39:48 22.2 19 25.7
002EF541 2019-04-17 05:06:36 22.2 19 25.3
002EF541 2019-04-17 04:33:25 22.2 20 25.1
002EF541 2019-04-17 04:00:14 22.2 20 25.5
002EF541 2019-04-17 03:27:01 22.2 20 25.5
002EF541 2019-04-17 02:53:49 22.3 20 25.4
002EF541 2019-04-17 02:20:36 22.3 20 25.4
002EF541 2019-04-17 01:47:23 22.3 20 25.3
002EF541 2019-04-17 01:14:13 22.4 20 25.3
002EF541 2019-04-17 00:41:02 22.3 20 25.3
002EF541 2019-04-17 00:07:49 22.5 20 25.6
002EF541 2019-04-16 23:34:38 22.5 20 25.8
002EF541 2019-04-16 23:01:26 22.5 20 25.8
002EF541 2019-04-16 22:28:15 22.5 20 25.6
002EF541 2019-04-16 21:55:04 22.5 20 25.9
002EF541 2019-04-16 21:21:52 22.6 20 26
002EF541 2019-04-16 20:48:41 22.6 20 26.1
002EF541 2019-04-16 20:15:29 22.7 19 26.1
002EF541 2019-04-16 19:42:19 22.7 19 25.9
002EF541 2019-04-16 19:09:07 22.6 19 26
002EF541 2019-04-16 18:35:55 22.6 19 25.9
002EF541 2019-04-16 18:02:43 22.7 19 25.8
002EF541 2019-04-16 17:29:31 22.8 18 25.5
002EF541 2019-04-16 16:56:20 22.9 18 25.4
002EF541 2019-04-16 16:23:09 22.9 19 25.5
002EF541 2019-04-16 15:49:57 22.9 19 25.5
002EF541 2019-04-16 15:16:45 22.9 19 25.6
002EF541 2019-04-16 14:43:34 22.9 19 25.7
002EF541 2019-04-16 14:10:23 22.7 19 25.3
002EF541 2019-04-16 13:37:11 22.7 18 25.4
002EF541 2019-04-16 13:04:01 22.7 18 25.8
002EF541 2019-04-16 12:30:49 22.5 18 25.8
002EF541 2019-04-16 11:57:37 22.5 18 25.8
002EF541 2019-04-16 11:24:27 22.5 18 25.8
002EF541 2019-04-16 10:51:17 22.5 18 25.8
002EF541 2019-04-16 10:18:06 22.3 18 25.6
002EF541 2019-04-16 09:44:55 22.3 18 25.5
002EF541 2019-04-16 09:11:44 22.2 18 25.4
002EF541 2019-04-16 08:38:33 22.2 18 25.4
002EF541 2019-04-16 08:05:23 22.2 18 25.1
002EF541 2019-04-16 07:32:12 22.2 17 25
002EF541 2019-04-16 06:59:01 22.2 17 24.9
002EF541 2019-04-16 06:25:49 22.2 17 24.7
002EF541 2019-04-16 05:52:37 22.2 17 24.7
002EF541 2019-04-16 05:19:24 22.2 17 24.5
002EF541 2019-04-16 04:46:11 22.2 17 24.4
002EF541 2019-04-16 04:12:58 22.2 17 24.3
002EF541 2019-04-16 03:39:46 22.2 17 24.4
002EF541 2019-04-16 03:06:35 22.2 17 24.6
002EF541 2019-04-16 02:33:24 22.2 17 24.5
002EF541 2019-04-16 02:00:11 22.2 17 24.4
002EF541 2019-04-16 01:27:00 22.2 17 24.4
002EF541 2019-04-16 00:53:47 22.2 17 24.2
002EF541 2019-04-16 00:20:36 22.2 17 24.4
002EF541 2019-04-15 23:47:25 22.3 17 24.2
002EF541 2019-04-15 23:14:14 22.4 17 23.6
002EF541 2019-04-15 22:41:03 22.4 17 23.5
002EF541 2019-04-15 22:07:52 22.5 17 23.6
002EF541 2019-04-15 21:34:41 22.5 17 23.6
002EF541 2019-04-15 21:01:30 22.5 16 23.5
002EF541 2019-04-15 20:28:18 22.5 16 23.5
002EF541 2019-04-15 19:55:06 22.6 16 23.3
002EF541 2019-04-15 19:21:54 22.5 16 23.1
002EF541 2019-04-15 18:48:43 22.6 15 23.3
002EF541 2019-04-15 18:15:31 22.7 15 23.3
002EF541 2019-04-15 17:42:20 22.7 15 23.2
002EF541 2019-04-15 17:09:08 22.9 15 23.3
002EF541 2019-04-15 16:35:56 22.9 15 23.6
002EF541 2019-04-15 16:02:45 22.9 15 23.5
002EF541 2019-04-15 15:29:36 22.9 15 23.6
002EF541 2019-04-15 14:56:22 22.9 15 23.8
002EF541 2019-04-15 14:23:10 22.7 16 24.1
002EF541 2019-04-15 13:49:58 22.7 16 24
002EF541 2019-04-15 13:16:47 22.7 16 24.1
002EF541 2019-04-15 12:43:35 22.5 16 24.2
002EF541 2019-04-15 12:10:22 22.4 16 24.2
002EF541 2019-04-15 11:37:10 22.4 16 24.2
002EF541 2019-04-15 11:03:58 22.3 16 24.4
002EF541 2019-04-15 10:30:47 22.2 17 24.4
002EF541 2019-04-15 09:57:36 22.2 17 24.6
002EF541 2019-04-15 09:24:24 22.2 17 24.6
002EF541 2019-04-15 08:51:12 22.1 17 24.7
002EF541 2019-04-15 08:18:00 22 17 24.8
002EF541 2019-04-15 07:44:48 22.1 17 24.9
002EF541 2019-04-15 07:11:37 22 17 24.9
002EF541 2019-04-15 06:38:27 22 17 24.7
002EF541 2019-04-15 06:05:15 22 17 24.7
002EF541 2019-04-15 05:32:05 22 17 24.7
002EF541 2019-04-15 04:58:54 22 17 24.8
002EF541 2019-04-15 04:25:44 22 17 24.9
002EF541 2019-04-15 03:52:32 22 18 24.8
002EF541 2019-04-15 03:19:22 22 18 24.6
002EF541 2019-04-15 02:46:11 22 18 24.5
002EF541 2019-04-15 02:13:00 22 18 24.6
002EF541 2019-04-15 01:39:49 22 18 24.6
002EF541 2019-04-15 01:06:37 22 18 24.6
002EF541 2019-04-15 00:33:24 22 18 24.4
002EF541 2019-04-15 00:00:10 22 18 24.4
002EF541 2019-04-14 23:26:59 22 18 24.2
002EF541 2019-04-14 22:53:46 22 18 24
002EF541 2019-04-14 22:20:34 22.1 18 24
002EF541 2019-04-14 21:47:22 22.1 18 24
002EF541 2019-04-14 21:14:11 22.1 18 24
002EF541 2019-04-14 20:40:59 22.2 18 23.9
002EF541 2019-04-14 20:07:47 22.2 18 23.8
002EF541 2019-04-14 19:34:36 22.2 18 23.8
002EF541 2019-04-14 19:01:24 22.2 18 23.7
002EF541 2019-04-14 18:28:11 22 18 23.6
002EF541 2019-04-14 17:55:01 22 18 24.1
002EF541 2019-04-14 17:21:49 22 18 24.2
002EF541 2019-04-14 16:48:37 22 18 24.3
002EF541 2019-04-14 16:15:25 22 18 24.4
002EF541 2019-04-14 15:42:14 22 18 24.5
002EF541 2019-04-14 15:09:04 22 18 24.4
002EF541 2019-04-14 14:35:53 22 18 24.2
002EF541 2019-04-14 14:02:41 22 18 24.3
002EF541 2019-04-14 13:29:29 22.1 19 24.3
002EF541 2019-04-14 12:56:18 22 19 24.4
002EF541 2019-04-14 12:23:07 22 19 24.3
002EF541 2019-04-14 11:49:56 22.1 19 24.3
002EF541 2019-04-14 11:16:45 22 19 24.4
002EF541 2019-04-14 10:43:33 22 19 24.5
002EF541 2019-04-14 10:10:21 22.1 19 24.7
002EF541 2019-04-14 09:37:09 22 18 24.8
002EF541 2019-04-14 09:03:57 22 18 24.9
002EF541 2019-04-14 08:30:44 22 18 25
002EF541 2019-04-14 07:57:32 22 18 25
002EF541 2019-04-14 07:24:19 22 18 25
002EF541 2019-04-14 06:51:07 22 18 25
002EF541 2019-04-14 06:17:54 22 18 25.1
002EF541 2019-04-14 05:44:42 22 18 25.2
002EF541 2019-04-14 05:11:30 22 18 25.2
002EF541 2019-04-14 04:38:18 22.1 18 25.1
002EF541 2019-04-14 04:05:06 22 18 24.7
002EF541 2019-04-14 03:31:56 22.1 18 24.7
002EF541 2019-04-14 02:58:45 22.2 18 24.7
002EF541 2019-04-14 02:25:33 22.2 18 24.7
002EF541 2019-04-14 01:52:22 22.2 18 24.8
002EF541 2019-04-14 01:19:09 22.2 18 24.8
002EF541 2019-04-14 00:45:57 22.2 18 24.8
002EF541 2019-04-14 00:12:44 22.2 18 24.8
002EF541 2019-04-13 23:39:33 22.2 18 24.9
002EF541 2019-04-13 23:06:20 22.2 18 25
002EF541 2019-04-13 22:33:07 22.2 18 25
002EF541 2019-04-13 21:59:54 22.2 18 25
002EF541 2019-04-13 21:26:40 22.2 18 25.1
002EF541 2019-04-13 20:53:28 22.2 18 25
002EF541 2019-04-13 20:20:16 22.2 18 24.8
002EF541 2019-04-13 19:47:03 22.3 18 24.8
002EF541 2019-04-13 19:13:51 22.3 18 24.7
002EF541 2019-04-13 18:40:38 22.4 18 24.7
002EF541 2019-04-13 18:07:27 22.5 18 24.8
002EF541 2019-04-13 17:34:15 22.5 18 24.6
002EF541 2019-04-13 17:01:02 22.5 18 24.7
002EF541 2019-04-13 16:27:52 22.5 18 24.5
002EF541 2019-04-13 15:54:40 22.5 18 24.6
002EF541 2019-04-13 15:21:30 22.5 18 24.5
002EF541 2019-04-13 14:48:18 22.5 18 24.6
002EF541 2019-04-13 14:15:06 22.5 18 24.6
002EF541 2019-04-13 13:41:54 22.5 18 24.5
002EF541 2019-04-13 13:08:41 22.5 18 24.5
002EF541 2019-04-13 12:35:29 22.5 18 24.3
002EF541 2019-04-13 12:02:17 22.5 18 24.2
002EF541 2019-04-13 11:29:06 22.5 18 24.2
002EF541 2019-04-13 10:55:54 22.5 18 24.2
002EF541 2019-04-13 10:22:42 22.5 18 24.3
002EF541 2019-04-13 09:49:28 22.5 18 24.3
002EF541 2019-04-13 09:16:15 22.5 18 24.3
002EF541 2019-04-13 08:43:02 22.5 18 24.3
002EF541 2019-04-13 08:09:50 22.5 18 24.3
002EF541 2019-04-13 07:36:37 22.5 18 24.1
002EF541 2019-04-13 07:03:23 22.5 18 24
002EF541 2019-04-13 06:30:09 22.5 18 24
002EF541 2019-04-13 05:56:54 22.5 18 23.9
002EF541 2019-04-13 05:23:40 22.5 18 23.9
002EF541 2019-04-13 04:50:27 22.5 18 23.9
002EF541 2019-04-13 04:17:12 22.5 18 24.4
002EF541 2019-04-13 03:43:59 22.5 18 24.8
002EF541 2019-04-13 03:10:46 22.6 18 25.2
002EF541 2019-04-13 02:37:34 22.7 19 25.1
002EF541 2019-04-13 02:04:21 22.7 19 25.1
002EF541 2019-04-13 01:31:08 22.7 19 25.2
002EF541 2019-04-13 00:57:56 22.7 19 25.3
002EF541 2019-04-13 00:24:44 22.7 19 25.3
002EF541 2019-04-12 23:51:31 22.7 19 25.4
002EF541 2019-04-12 23:18:19 22.9 19 25.4
002EF541 2019-04-12 22:45:05 22.9 19 25.6
002EF541 2019-04-12 22:11:52 22.9 20 25.6
002EF541 2019-04-12 21:38:39 22.9 20 25.7
002EF541 2019-04-12 21:05:25 22.9 19 25.8
002EF541 2019-04-12 20:32:13 22.9 19 25.8
002EF541 2019-04-12 19:59:00 22.9 19 25.9
002EF541 2019-04-12 19:25:47 22.9 19 26
002EF541 2019-04-12 18:52:33 23.1 18 26.1
002EF541 2019-04-12 18:19:20 23.1 17 26.2
002EF541 2019-04-12 17:46:06 23.2 17 26.4
002EF541 2019-04-12 17:12:52 23.1 17 26.9
002EF541 2019-04-12 16:39:39 23.1 18 27.3
002EF541 2019-04-12 16:06:24 23.1 18 27.8
002EF541 2019-04-12 15:33:10 22.9 18 28.1
002EF541 2019-04-12 14:59:57 22.7 18 28.8
002EF541 2019-04-12 14:26:44 22.5 19 28.3
002EF541 2019-04-12 13:53:30 22 19 27
002EF541 2019-04-12 13:20:16 21.4 21 6